Flag for Thailand Weather past 2 weeks in Udon Thani, Thailand

Now
79 °F

Clear.


Feels Like: 83 °F
Forecast: 75 / 81 °F
Wind: 5 mph from Southeast

Location: Udon Thani Airport

Current Time: Aug 31, 2015 at 8:58:27 PM

Latest Report: Aug 31, 2015 at 8:00 PM


Visibility: 5 mi

Pressure: 29.74 "Hg

Humidity: 94%

Dew point: 77 °F

Location of Udon ThaniLocation

Historic Weather in Udon Thani — Graph

°F

Udon Thani temperature yesterday

Maximum temperature yesterday: 88 °F (at 1:00 PM)
Minimum temperature yesterday: 79 °F (at 6:00 AM)
Average temperature yesterday: 83 °F

Past Weeks' High & Low Weather Summary

 TemperatureHumidityPressure
High95 °F (Aug 17, 2:00 PM)100% (Aug 17, 6:00 AM)29.86 "Hg (Aug 17, 6:00 AM)
Low75 °F (Aug 26, 8:00 AM)53% (Aug 17, 2:00 PM)29.59 "Hg (Aug 22, 5:00 PM)
Average85 °F75%29.73 "Hg
* Reported Aug 16 8:00 PM — Aug 31 8:00 PM, Udon Thani, Weather by CustomWeather, © 2015

Note: Actual official high and low records may vary slightly from our data, if they occured in-between our weather recording intervals... More about our weather records

Advertising

Udon Thani weather history for previous 24 hours

 ConditionsComfort  
Time TempWeatherWind HumidityBarometerVisibility
8:00 PM
Mon, Aug 31
79 °FClear.5 mph94%29.74 "Hg5 mi
7:00 PM79 °FLight rain. Clear.6 mph94%29.71 "Hg5 mi
6:00 PM79 °FLight rain. Partly sunny.3 mph94%29.71 "Hg5 mi
5:00 PM79 °FLight rain. Partly sunny.3 mph94%29.71 "Hg5 mi
4:00 PM79 °FLight rain. Mostly cloudy.5 mph94%29.71 "Hg5 mi
3:00 PM79 °FRain. Mostly cloudy.3 mph100%29.74 "Hg2 mi
2:00 PM79 °FRain. More clouds than sun.2 mph100%29.77 "Hg2 mi
1:00 PM81 °FLight rain. Cloudy.3 mph89%29.80 "Hg3 mi
12:00 PM81 °FLight rain. Cloudy.3 mph89%29.80 "Hg3 mi
11:00 AM79 °FLight rain. More clouds than sun.3 mph100%29.80 "Hg3 mi
10:00 AM79 °FLight rain. Partly sunny.5 mph100%29.80 "Hg2 mi
9:00 AM79 °FLight rain. Broken clouds.3 mph100%29.80 "Hg2 mi
8:00 AM79 °FLight rain. Mostly cloudy.5 mph94%29.77 "Hg2 mi
7:00 AM79 °FLight rain. Mostly cloudy.2 mph94%29.77 "Hg2 mi
6:00 AM79 °FLight rain. Mostly cloudy.3 mph94%29.74 "Hg2 mi
10:00 PM
Sun, Aug 30
81 °FPassing clouds.5 mph89%29.77 "HgN/A
9:00 PM81 °FPassing clouds.5 mph89%29.77 "HgN/A
8:00 PM82 °FClear.5 mph89%29.74 "Hg10 mi
Weather by CustomWeather, © 2015

See weather overviewHow to use our weather pages